Location: Gälforsberget
(66.6500°N, 22.4167°E)
Time: 19:02:50
(UTC+00:00)

Cosmos 1125 Rocket - Pass Details

Date: 11 April 2026
Orbit: 752 x 776 km, 74.0° (Epoch: 19 May)

Event Time Altitude Azimuth Distance (km) Brightness Sun altitude
Exits shadow 22:31:31 - 236° (SW) 2,806 6.1 -14.8°
Reaches altitude 10° 22:32:49 10° 238° (WSW) 2,306 5.7 -14.8°
Maximum altitude 22:38:02 68° 321° (NW) 834 3.8 -14.7°
Drops below altitude 10° 22:43:19 10° 45° (NE) 2,330 6.7 -14.7°
Sets 22:45:44 0° 48° (NE) 3,263 7.5 -14.7°
